Location: Venise Bay
(45.0825°N, 73.1481°W)
Time: 17:21:03
(UTC-05:00)

ISS - Pass Details

Date: 30 November 2021
Orbit: 413 x 422 km, 51.6° (Epoch: 24 January)

Event Time Altitude Azimuth Distance (km) Brightness Sun altitude
Rises 18:00:04 0° 297° (WNW) 2,385 0.9 -18.4°
Reaches altitude 10° 18:02:20 10° 308° (NW) 1,516 -0.4 -18.8°
Enters shadow 18:05:02 30° 358° (N) 791 -2.5 -19.3°
